Weather History for CWDZ - September, 2013

Change the Weather History Date:

Sunday, September 8, 2013

  Actual Average Record
Temperature  
Mean Temperature 66 °F -  
Max Temperature 80 °F - - ()
Min Temperature 53 °F - - ()
Cooling Degree Days 2    
Growing Degree Days 16 (Base 50)    
Moisture  
Dew Point 54 °F    
Average Humidity 74    
Maximum Humidity 94    
Minimum Humidity 38    
Precipitation  
Precipitation 0.00 in - - ()
Sea Level Pressure  
Sea Level Pressure 29.91 in    
Wind  
Wind Speed 3 mph ()    
Max Wind Speed 8 mph    
Max Gust Speed -    
T = Trace of Precipitation, MM = Missing Value Source: Averaged Metar Reports

Daily Weather History Graph

Daily Weather History Graph

Search for Another Location

Airport or City:

Trip Planner

Search our weather history database for the weather conditions in past years. The results will help you decide how hot, cold, wet, or windy it might be!

Date:

Astronomy

Sep. 08, 2013 Rise Set
Actual Time 6:55 AM MDT 8:00 PM MDT
Civil Twilight 6:20 AM MDT 8:34 PM MDT
Nautical Twilight 5:39 AM MDT 9:15 PM MDT
Astronomical Twilight 4:55 AM MDT 9:59 PM MDT
Moon 10:46 AM MDT (9/8) 9:06 PM MDT (9/8)
Length of Visible Light 14h 13m
Length of Day
13h 05m
Waxing Crescent, 11% of the Moon is Illuminated
Sep 8
Waxing Crescent
Sep 12
First Quarter
Sep 19
Full
Sep 26
Last Quarter
Oct 4
New

Hourly Weather History & Observations

Time (MDT) Temp. Dew Point Humidity Pressure Visibility Wind Dir Wind Speed Gust Speed Precip Events Conditions
12:00 AM 57 °F 53 °F 84% 30.06 in - Calm Calm - -  
12:00 AM 57.0 °F 53.4 °F 88% 30.06 in - Calm Calm - N/A   Unknown
1:00 AM 56.1 °F 52.9 °F 89% 30.05 in - NW 1.2 mph - N/A   Unknown
2:00 AM 56.8 °F 54.5 °F 92% 30.03 in - Calm Calm - N/A   Unknown
3:00 AM 56.8 °F 54.1 °F 91% 30.01 in - SSE 3.5 mph - N/A   Unknown
4:00 AM 54.9 °F 52.7 °F 92% 30.01 in - SSE 2.3 mph - N/A   Unknown
5:00 AM 55.0 °F 53.1 °F 93% 29.99 in - SSE 4.6 mph - N/A   Unknown
6:00 AM 54 °F 53 °F 94% 29.99 in - SE 4.6 mph - -  
6:00 AM 54.3 °F 52.7 °F 94% 29.99 in - SE 4.6 mph - N/A   Unknown
7:00 AM 53.6 °F 51.8 °F 94% 29.98 in - SSE 4.6 mph - N/A   Unknown
8:00 AM 55.8 °F 53.6 °F 92% 29.96 in - SSE 3.5 mph - N/A   Unknown
9:00 AM 57.9 °F 54.3 °F 88% 29.96 in - SE 3.5 mph - N/A   Unknown
10:00 AM 58.5 °F 54.9 °F 88% 29.96 in - SW 5.8 mph - N/A   Unknown
11:00 AM 60.4 °F 55.6 °F 84% 29.94 in - SSE 2.3 mph - N/A   Unknown
12:00 PM 65 °F 56 °F 65% 29.93 in - South 4.6 mph - -  
12:00 PM 65.1 °F 55.9 °F 72% 29.93 in - South 4.6 mph - N/A   Unknown
1:00 PM 71.1 °F 56.3 °F 60% 29.90 in - SSW 8.1 mph - N/A   Unknown
2:00 PM 73.8 °F 55.8 °F 53% 29.86 in - South 3.5 mph - N/A   Unknown
3:00 PM 77.4 °F 54.9 °F 46% 29.83 in - SSE 5.8 mph - N/A   Unknown
4:00 PM 77.4 °F 51.3 °F 40% 29.81 in - South 3.5 mph - N/A   Unknown
5:00 PM 77.4 °F 50.2 °F 38% 29.79 in - SSW 3.5 mph - N/A   Unknown
6:00 PM 73 °F 56 °F 45% 29.80 in - SSE 4.6 mph - -  
6:00 PM 72.7 °F 56.1 °F 56% 29.80 in - SSE 4.6 mph - N/A   Unknown
7:00 PM 74.1 °F 54.9 °F 51% 29.78 in - South 8.1 mph - N/A   Unknown
8:00 PM 70.7 °F 54.7 °F 57% 29.78 in - SW 2.3 mph - N/A   Unknown
9:00 PM 67.3 °F 56.3 °F 68% 29.80 in - South 5.8 mph - N/A   Unknown
10:00 PM 62.2 °F 56.1 °F 80% 29.81 in - SSE 5.8 mph - N/A   Unknown
11:00 PM 60.8 °F 55.6 °F 83% 29.80 in - SE 3.5 mph - N/A   Unknown